Location: Cogollal
(10.0582°N, 67.8466°W)
Time: 20:19:56
(UTC+00:00)

CRYOSAT 2 - Pass Details

Date: 14 April 2024
Orbit: 716 x 722 km, 92.0° (Epoch: 18 May)

Event Time Altitude Azimuth Distance (km) Brightness Sun altitude
Rises 08:33:54 0° 6° (N) 3,110 7.9 -26.6°
Reaches altitude 10° 08:36:11 10° 7° (N) 2,191 7.1 -26.1°
Maximum altitude 08:41:02 86° 97° (E) 720 4.3 -24.9°
Enters shadow 08:42:30 46° 181° (S) 958 4.8 -24.6°
